This is the latest recevied weather packets stored in our database for station/object W4SMH. If no packets are shown the sender has not sent any weather packets the latest 10 day(s).
| Time | Temp. | Humidity | Pressure | Rain* | Wind** | Luminosity | Snow |
|---|---|---|---|---|---|---|---|
| 1777661407 | 6.11° C | 76% | 1015.7 hPa | 0 mm | - | 171 W/m² | - |
| 1777659889 | 6.67° C | 73% | 1015.5 hPa | 0 mm | - | 155 W/m² | - |
| 1777659144 | 7.22° C | 73% | 1015.5 hPa | 0 mm | - | 209 W/m² | - |
| 1777658080 | 7.78° C | 75% | 1015.5 hPa | 0 mm | - | 1164 W/m² | - |
| 1777656856 | 7.22° C | 71% | 1015.4 hPa | 0 mm | - | 292 W/m² | - |
| 1777656625 | 7.78° C | 70% | 1015.4 hPa | 0 mm | - | 234 W/m² | - |
| 1777656112 | 7.78° C | 64% | 1015.5 hPa | 0 mm | - | 225 W/m² | - |
| 1777656081 | 7.78° C | 63% | 1015.5 hPa | 0 mm | - | 220 W/m² | - |
| 1777655884 | 7.22° C | 85% | 1013.4 hPa | 0 mm | - | 93 W/m² | - |
| 1777655835 | 8.33° C | 61% | 1015.4 hPa | 0 mm | - | 221 W/m² | - |
| 1777655760 | 8.33° C | 62% | 1015.3 hPa | 0 mm | - | 195 W/m² | - |
| 1777655405 | 8.33° C | 59% | 1015.3 hPa | 0 mm | - | 153 W/m² | - |
| 1777655180 | 8.33° C | 60% | 1015.2 hPa | 0 mm | - | 134 W/m² | - |
| 1777654970 | 8.33° C | 58% | 1015.3 hPa | 0 mm | - | 134 W/m² | - |
| 1777654949 | 7.22° C | 85% | 1013.3 hPa | 0 mm | - | 121 W/m² | - |
| 1777654928 | 8.33° C | 57% | 1015.2 hPa | 0 mm | - | 139 W/m² | - |
| 1777654561 | 8.33° C | 61% | 1015.1 hPa | 0 mm | - | 338 W/m² | - |
| 1777653099 | 7.78° C | 62% | 1015.2 hPa | 0 mm | - | 258 W/m² | - |
| 1777652880 | 7.78° C | 62% | 1015.2 hPa | 0 mm | - | 223 W/m² | - |
| 1777652848 | 7.78° C | 62% | 1015.2 hPa | 0 mm | - | 213 W/m² | - |
| 1777652505 | 8.33° C | 60% | 1015.2 hPa | 0 mm | - | 230 W/m² | - |
| 1777652463 | 8.33° C | 60% | 1015.2 hPa | 0 mm | - | 213 W/m² | - |
| 1777652372 | 8.33° C | 60% | 1015.2 hPa | 0 mm | - | 162 W/m² | - |
| 1777652313 | 8.33° C | 60% | 1015.2 hPa | 0 mm | - | 156 W/m² | - |
| 1777652158 | 8.89° C | 60% | 1015 hPa | 0 mm | - | 165 W/m² | - |
* Rain latest hour (hover to see other rain measurements)
** Current wind speed in m/s (hover to see current wind gust speed)